Other Public Products
Issued by NWS Grand Forks, ND

Home | Current Version | Previous Version | Graphics & Text | Print | Product List | Glossary On
Versions: 1 2 3 4 5 6 7 8 9 10 11 12 13 14 15 16 17 18 19 20 21 22 23 24 25 26 27 28 29 30 31 32 33 34 35 36 37 38 39 40 41 42 43 44 45 46 47 48 49 50
000
FPUS83 KFGF 212331
OPUFGF
PRAIRIE TO PINES WEATHER ROUNDUP
NATIONAL WEATHER SERVICE EASTERN NORTH DAKOTA/GRAND FORKS ND
600 PM CDT THU SEP 21 2017

 **SATELLITE DATA USED TO AUGMENT SKY COVER AT AUTOMATED STATIONS**
 *****  WEATHER ACROSS EASTERN NORTH DAKOTA  *****

CITY           SKY/WX    TMP DP  RH WIND       PRES   REMARKS
GRAND FORKS    FAIR      79  51  37 SE15      29.66F
GRAND FORKS AF FAIR      78  47  33 S10       29.67S
GRAND CITY NWS NOT AVBL
BUXTON         NOT AVBL
DEVILS LAKE    CLOUDY    71  58  63 SE5       29.66R
FARGO          CLOUDY    79  59  50 SE10G22   29.67S
WAHPETON ARPT  CLOUDY    77  63  61 SE10      29.67F
$$

 *****  WEATHER ACROSS CENTRAL AND WESTERN NORTH DAKOTA  *****

CITY           SKY/WX    TMP DP  RH WIND       PRES   REMARKS
JAMESTOWN      FAIR      80  62  54 S9        29.64R
BISMARCK       FAIR      76  50  40 NW14      29.68R
MINOT          FAIR      70  46  42 NW13      29.72R
MINOT AFB      FAIR      68  46  44 N10       29.71R
GARRISON         N/A     70  45  40 N12G20    29.71R
WILLISTON      PTSUNNY   63  36  36 NW12      29.80R
DICKINSON      FAIR      67  40  37 N13       29.76R
HETTINGER      FAIR      70  41  34 N14       29.75R
$$

 *****  OTHER OBSERVATIONS NORTHEAST NORTH DAKOTA  *****

CITY           SKY/WX    TMP DP  RH WIND       PRES   REMARKS
WALHALLA       FAIR     N/A N/A N/A SE6       29.67S
LANGDON        CLOUDY    73  50  43 S5        29.69S
CAVALIER       FAIR      75  48  38 SE8       29.67S
GRAFTON        MOCLDY    75  48  38 S10       29.70R
CANDO          CLOUDY    66  52  59 N10G16    29.71R
FORT TOTTEN      N/A     75  57  53 S3        29.95
ROLLA          MOCLDY    64  50  59 NE7       29.73R
RUGBY          FAIR      68  52  56 N8        29.70R
 ***** THE ABOVE OBSERVATIONS ARE NON NWS ARE NOT QUALITY
        CONTROLLED AND MAY MIS-REPORT RAIN FOR SNOW...
$$

 *****  OTHER OBSERVATIONS SOUTHEAST NORTH DAKOTA *****

CITY           SKY/WX    TMP DP  RH WIND       PRES   REMARKS
COOPERSTOWN    FAIR      77  54  44 SE10      29.68R
VALLEY CITY    FAIR      77  57  50 SE13G18   29.68R
OAKES          NOT AVBL
GWINNER        CLEAR     81  66  61 SE10G16   29.65S
SHEYENNE NWR     N/A     80  65  59 SE14      29.95S
BUFFALO        NOT AVBL
WYNDMERE       NOT AVBL
 ***** THE ABOVE OBSERVATIONS ARE NON NWS ARE NOT QUALITY
       CONTROLLED AND MAY MIS-REPORT RAIN FOR SNOW...
$$

  *****  WEATHER ACROSS NORTHERN MINNESOTA  *****

CITY           SKY/WX    TMP DP  RH WIND       PRES   REMARKS
FLAG ISLAND    FAIR      70  52  52 E6        29.74F
WARROAD        FAIR      73  52  46 SE12G17   29.75S
ROSEAU         FAIR      73  52  46 SE12      29.73S
HALLOCK          N/A     79  39  24 S12       29.69R
THF RVR FALLS  CLOUDY    75  49  39 SE15      29.73S
HALSTAD        NOT AVBL
FOSSTON        FAIR      72  52  49 SE9G20    29.75S
BAUDETTE       FAIR      73  48  41 SE17G24   29.77F
WASKISH        FAIR      70  52  52 SE8       29.79S
CROOKSTON      CLOUDY    75  50  41 S12       29.70R
$$
  *****  WEATHER ACROSS CENTRAL AND WEST MINNESOTA  *****

CITY           SKY/WX    TMP DP  RH WIND       PRES   REMARKS
BEMIDJI        PTSUNNY   71  51  49 SE10      29.78S
PARK RAPIDS    FAIR      73  54  51 SE10      29.79R
WADENA         CLOUDY    73  61  64 SE13      29.76F
DETROIT LAKES  FAIR      73  55  53 SE14      29.75S
MOORHEAD       FAIR      77  57  50 SE8       29.69S
FERGUS FALLS   CLOUDY    77  64  65 SE3       29.70S
ELBOW LAKE     MOCLDY    77  67  72 SE12      29.71S HAZE
MORRIS MN      FAIR      82  70  65 SE16      29.68F
STAPLES        CLOUDY    73  61  64 SE7       29.78S
WHEATON        FAIR      81  66  61 SE14      29.68S
$$
  *****  WEATHER ELSEWHERE ACROSS MINNESOTA  *****

CITY           SKY/WX    TMP DP  RH WIND       PRES   REMARKS
DULUTH         FAIR      64  55  72 E18       29.90S
INTRNTL FALLS  FAIR      69  50  50 SE9       29.83F
ELY            FAIR      66  52  59 E9        29.91F
CLOQUET        FAIR      63  55  77 E8G17     29.89S
BRAINERD       FAIR      75  59  57 SE9       29.80S
HIBBING        FAIR      69  54  58 SE16G24   29.86F
ALEXANDRIA     FAIR      77  67  71 SE13      29.75F
SAINT CLOUD    PTSUNNY   79  69  71 SE15      29.79S
MINNEAPOLIS    FAIR      83  70  64 SE10      29.80S
$$

  *****  WEATHER ACROSS SOUTH DAKOTA  *****

CITY           SKY/WX    TMP DP  RH WIND       PRES   REMARKS
SIOUX FALLS    FAIR      86  71  60 S17       29.69R HX  91
BROOKINGS      FAIR      83  69  62 S10       29.69R
WATERTOWN      FAIR      82  67  60 S12       29.68R
HURON          FAIR      85  68  56 SE12      29.64R
SISSETON         N/A     82  69  64 SE9       29.65F
ABERDEEN       FAIR      84  64  50 S16G22    29.63R
MITCHELL       FAIR      89  66  46 S13       29.63S HX  91
PIERRE         FAIR      88  53  30 S13       29.59R
MOBRIDGE       FAIR      87  57  35 CALM      29.60R
RAPID CITY     SUNNY     75  39  27 N22       29.69S
$$

  *****  SOME WEATHER IN NEARBY STATES *****

CITY           SKY/WX    TMP DP  RH WIND       PRES   REMARKS
GLASGOW MT     CLOUDY    59  31  34 NW8       29.83S
GREAT FALLS MT PTSUNNY   52  27  38 E6        29.86R
CHEYENNE WY    FAIR      81  16   9 S10G20    29.76F
SCOTTSBLUFF NE FAIR      87  37  17 E15       29.64S
OMAHA NE       FAIR      91  71  51 S26G37    29.72S HX  97
DES MOINES IA  FAIR      88  72  58 S12G23    29.81S HX  94
DAVENPORT IA   FAIR      84  68  58 S9        29.96F
CHICAGO IL     FAIR      90  65  43 S9        29.96F HX  92
EAU CLAIRE WI  FAIR      81  68  64 SE10      29.87F
LA CROSSE WI   NOT AVBL
$$

  *****  SOME NATIONAL WEATHER *****

CITY           SKY/WX    TMP DP  RH WIND       PRES   REMARKS
LA GUARDIA NY  MOCLDY    77  64  64 N8        29.99S
RALEIGH NC     FAIR      72  65  78 NE3       30.02R
ATLANTA GA     MOCLDY    78  67  68 SW6       30.01R
NEW ORLEANS LA PTSUNNY   86  72  62 E5        29.94S HX  92
OKLAHOMA CITY  FAIR      90  70  51 S20G26    29.83F HX  95
ALBUQUERQUE NM FAIR      86  36  16 S18G32    29.89F
SALT LAKE CITY CLOUDY    53  41  63 NW18      29.72R
LOS ANGELES CA FAIR      70  55  59 W15       29.82F
BOISE ID       PTSUNNY   57  33  40 NW15      29.79F
SEATTLE WA     PTSUNNY   62  48  60 VRB3      29.96R
$$

*** WEATHER ACROSS MANITOBA...SASKATCHEWAN AND ONTARIO ***
                ***ONTARIO***

CITY           SKY/WX    TMP DP  RH WIND       PRES   REMARKS
GERALDTON      PTCLDY    68  46  45 SE5       30.01F
THUNDER BAY    CLEAR     63  48  59 E10       30.00F
SIOUX LOOKOUT  MOCLDY    66  45  45 SE6       29.88F
TORONTO        PTCLDY    77  61  57 SE6       30.10S
BIG TROUT LK   MOCLDY    64  48  55 S14G20    29.86R
PICKLE LAKE    PTCLDY    66  45  45 S6        29.93F
DRYDEN         PTSUNNY   66  45  45 SE10      29.86F
KENORA         PTSUNNY   68  48  49 S14G22    29.80S
$$
                *** MANITOBA***

CITY           SKY/WX    TMP DP  RH WIND       PRES   REMARKS
BRANDON        CLOUDY    59  54  82 NW7       29.74S
DAUPHIN        CLOUDY    64  46  52 W5        29.73R
ISLAND LAKE    CLOUDY    61  48  63 S16G25    29.72
PILOT MOUND      N/A     63  52  67 N7          N/A
THE PAS        MOSUNNY   59  39  47 W14       29.68R
THOMPSON       PTSUNNY   57  46  67 NW8       29.63R
WINNIPEG       PTSUNNY   68  52  56 N14       29.71S
LYNN LAKE      LGT RAIN  41  39  93 W6        29.70R FOG
CHURCHILL      TSTM      46  46 100 NE18G28   29.64S
GILLAM         MOSUNNY   64  45  48 S14       29.62S
$$
                ***SASKATCHEWAN***

CITY           SKY/WX    TMP DP  RH WIND       PRES   REMARKS
ESTEVAN        CLOUDY    63  34  34 NW16      29.79R
KINDERSLEY     LGT RAIN  45  37  76 NW8       29.83R
LLOYDMINSTER   LGT RAIN  43  37  81 N10       29.83R
PRINCE ALBERT  PTSUNNY   48  43  81 W5        29.79
REGINA         PTSUNNY   57  36  44 NW13      29.81R
YORKTON        SUNNY     61  36  39 W13       29.75R



USA.gov is the U.S. government's official web portal to all federal, state and local government web resources and services.